Location: Budapest
(47.4979°N, 19.0402°E)
Time: 02:55:40
(UTC+02:00)

Vanguard 2 Rocket - Visible Passes

Search period start: 18 August 2018 00:00
Search period end: 28 August 2018 00:00
Orbit: 554 x 3327 km, 32.9° (Epoch: 17 August)

Date Brightness Start Highest point End Pass type
(mag) Time Alt. Az. Time Alt. Az. Time Alt. Az.
18 Aug 8.7 20:15:39 10° WSW 20:24:14 29° S 20:29:46 10° SE visible
18 Aug 8.8 22:33:07 10° WSW 22:36:05 13° SSW 22:36:10 13° SSW visible
19 Aug 8.5 21:31:05 10° WSW 21:37:10 20° SSW 21:40:00 16° S visible
20 Aug 8.8 20:29:21 10° WSW 20:38:02 28° SSW 20:43:40 10° SE visible
21 Aug 8.8 21:45:31 10° WSW 21:50:44 17° SW 21:53:28 13° S visible
22 Aug 8.9 20:43:19 10° WSW 20:51:41 25° SSW 20:57:17 10° SSE visible
23 Aug 9.2 22:00:49 10° WSW 22:04:05 12° SW 22:06:51 10° SSW visible
24 Aug 9.1 20:57:34 10° WSW 21:05:09 21° SW 21:10:30 10° S visible
25 Aug 9.2 19:55:05 10° WSW 20:05:53 29° SSW 20:12:51 10° SSE visible
26 Aug 9.4 21:12:24 10° WSW 21:18:24 16° SW 21:23:01 10° S visible
27 Aug 9.4 20:09:14 10° W 20:19:15 25° SW 20:26:04 10° SSE visible
